STARLINK-32342 (61217 NORAD) Tracking and Keplerian Element Data

This shows tracking and keplerian element data for the satellite.

Feedback or suggestion? Click here.




ElementValue
Catalog61217
NameSTARLINK-32342
Epoch Orbit477
Epoch Day286.91668981
Epoch Year2024
RAAN186.5806
Inclination53.1594
Eccentricity0.0001047
Argument of Perigee69.9694
Mean Anonmoly67.976
Mean Motion15.49446356
Decay Rate-0.00344294
L11 61217U 24171T 24286.91668981 -.00344294 00000+0 -64276-2 0 9996
L22 61217 53.1594 186.5806 0001047 69.9694 67.9760 15.49446356 4775



Live tracking and technical data element details for STARLINK-32342 (NORAD 61217). STARLINK-32342 can be tracked NOW for your location showing map with azimuth and elevation plus other details from your city location.







IsCatalogInMostPopularTable: catalog: 61217, numindb: 22
Update: records affected: 1



GetName: 61217 STARLINK-32342

Hit Count: updated at: Fri, 06 Dec 2024 11:53:17 GMT